Terminal Aerodrome Forecast
Issued by NWS Indianapolis, IN

Home | Current Version | Previous Version | Text Only | Print | Product List | Glossary On
Versions: 1 2 3 4 5 6 7 8 9 10 11 12 13 14 15 16 17 18 19 20 21 22 23 24 25 26 27 28 29 30 31 32
000
FTUS43 KIND 021700
TAFIND
TAF
KIND 021725Z 0218/0324 06008KT P6SM SCT035 BKN060
     FM030900 05007KT 6SM BR BKN030 BKN060
     FM031600 05007KT P6SM SCT035 BKN060=

USA.gov is the U.S. government's official web portal to all federal, state and local government web resources and services.